Location: Newark
(41.1192°N, 81.5292°W)
Time: 15:55:35
(UTC+00:00)

N. Korean satellite - Pass Details

Date: 19 November 2019
Orbit: 456 x 506 km, 97.2° (Epoch: 09 December)

Event Time Altitude Azimuth Distance (km) Brightness Sun altitude
Rises 10:51:41 0° 20° (NNE) 2,612 10.4 -16.3°
Reaches altitude 10° 10:53:54 10° 28° (NNE) 1,718 9.5 -15.9°
Maximum altitude 10:57:22 37° 97° (E) 788 8.3 -15.2°
Drops below altitude 10° 11:00:46 10° 167° (SSE) 1,684 9.6 -14.6°
Sets 11:02:55 0° 175° (S) 2,552 10.5 -14.2°
